Temp
5 4 5 5 5 4 3 3 3 3 4 4 5 5 5 5 6 6 7 7 8 8 8 7 7 7 7 7 7 7 7 7 6 6 6 5 5 5 6 6 6 5 5 5
4 4 5 4 3 3 2 2 3 3 4 4 4 4 5 5 6 6 7 7 7 7 8 7 7 7 7 7 7 7 7 7 7 6 5 5 5 5 5 6 6 5 5 4
3 4 3 3 3 2 2 2 3 3 4 4 4 4 5 6 6 7 6 6 7 7 7 7 7 8 7 7 7 7 7 7 7 6 6 5 5 5 5 5 5 4 4 4
3 3 3 2 2 2 2 3 3 3 3 3 3 2 4 5 6 6 5 6 7 7 7 7 7 8 7 7 7 7 7 7 7 7 6 5 5 5 5 4 4 5 4 4
3 2 2 2 2 3 3 3 3 3 2 2 2 3 4 4 5 5 5 6 6 7 7 7 8 8 7 7 7 7 6 7 7 7 6 5 5 5 4 4 5 5 4 4
2 2 2 3 3 3 3 3 3 3 2 0 2 2 3 3 4 4 5 5 5 6 6 7 7 7 7 7 7 6 7 7 7 6 6 6 5 4 5 5 5 5 4 4
2 2 2 2 2 2 2 2 1 -1 -1 0 2 2 3 3 4 4 4 4 5 5 5 5 6 6 6 6 7 7 6 7 6 5 5 5 5 5 5 5 5 4 4 5
1 0 1 1 1 1 1 0 0 -3 -2 -2 2 2 3 3 3 3 4 3 4 4 4 4 5 5 5 6 6 7 7 6 4 5 5 4 4 5 5 5 5 5 4 4
-1 -1 -1 -1 -1 -1 -2 -1 -3 -2 -2 -3 -0 1 2 2 2 2 3 3 4 4 4 4 4 5 5 5 6 6 6 5 5 4 4 4 4 5 5 4 5 4 4 4
-2 -2 -3 -3 -3 -2 -3 -3 -3 -3 -6 -4 -2 -1 1 0 1 1 2 2 3 3 4 5 4 4 5 5 4 4 4 4 4 3 4 4 4 4 4 4 4 4 4 4
-4 -3 -4 -4 -4 -4 -4 -4 -5 -5 -5 -7 -4 -2 -3 -3 -2 -2 -2 -1 -0 1 2 4 3 2 2 2 2 2 2 3 3 3 3 3 3 4 4 4 4 4 4 3
-4 -4 -5 -5 -5 -5 -7 -8 -7 -8 -8 -9 -9 -6 -4 -4 -4 -4 -3 -2 -2 -1 -1 2 1 2 1 2 2 2 2 1 2 2 2 2 3 3 3 3 3 3 3 3
-5 -6 -6 -8 -7 -7 -8 -8 -8 -9 -9 -9 -10 -7 -6 -5 -4 -4 -5 -3 -3 -3 -1 -0 1 1 2 1 2 1 1 2 2 2 2 1 2 3 3 3 3 3 3 2
-5 -6 -6 -6 -6 -7 -8 -9 -8 -9 -10 -10 -9 -9 -8 -7 -5 -5 -5 -5 -4 -3 -2 -1 1 1 -0 1 1 1 1 2 3 2 1 2 2 2 2 2 2 2 2 2
-7 -7 -8 -8 -8 -9 -9 -9 -9 -10 -8 -10 -8 -8 -7 -7 -6 -6 -6 -5 -4 -5 -4 -3 -1 -1 0 0 1 0 1 1 2 2 2 2 2 2 2 2 2 2 2 2
-7 -8 -9 -8 -8 -9 -8 -7 -7 -7 -7 -9 -8 -8 -7 -8 -7 -6 -5 -6 -5 -4 -5 -3 -2 -2 -0 0 1 -1 -0 1 1 1 2 2 2 2 2 2 2 1 1 1
-8 -8 -8 -8 -9 -9 -8 -7 -8 -8 -8 -8 -9 -8 -8 -8 -7 -7 -6 -6 -5 -4 -3 -3 -1 -2 -1 -1 0 -0 -0 1 1 1 1 1 2 1 1 1 1 0 1 1
-8 -8 -8 -8 -9 -12 -7 -8 -8 -8 -8 -9 -8 -8 -8 -8 -7 -7 -7 -6 -5 -4 -4 -2 -2 -3 -3 -0 0 -1 -0 -0 0 1 1 1 1 1 0 0 -1 -0 0 0
-8 -8 -8 -9 -10 -8 -7 -8 -8 -8 -7 -8 -9 -8 -8 -6 -5 -5 -6 -5 -4 -4 -4 -4 -3 -1 -3 -2 -1 -2 -1 0 1 1 1 1 1 0 -0 -1 -1 -0 0 -0
-8 -8 -9 -11 -11 -11 -8 -8 -8 -8 -8 -8 -8 -8 -8 -7 -6 -6 -5 -5 -4 -4 -4 -4 -3 -1 -1 -1 -1 -1 -0 1 1 1 1 1 -0 -0 -0 -0 -1 -0 -1 -1
-8 -9 -9 -10 -10 -9 -8 -8 -8 -9 -8 -8 -8 -8 -8 -8 -7 -7 -6 -5 -5 -4 -4 -4 -3 0 -2 -1 -1 -0 -0 -1 1 1 1 -0 -1 -1 -1 -1 -1 -1 -1 -1
-8 -9 -10 -11 -11 -10 -8 -9 -9 -9 -9 -8 -8 -8 -8 -8 -8 -8 -6 -6 -6 -6 -5 -4 -2 -2 -2 -2 -1 -1 -1 -0 0 0 -0 -1 -1 -1 -1 -0 -0 -1 -1 -1
-9 -9 -8 -9 -8 -8 -9 -9 -9 -9 -9 -9 -8 -8 -8 -7 -8 -9 -8 -7 -7 -7 -5 -3 -3 -2 -2 -1 -1 -1 -1 -1 -0 -0 -1 -1 -1 -2 -0 -0 -1 -1 -1 -2
-8 -9 -9 -9 -7 -9 -9 -9 -9 -9 -9 -8 -9 -8 -8 -8 -8 -8 -7 -6 -7 -7 -5 -4 -3 -2 -2 -1 -1 -1 -1 -1 -1 -1 -1 -2 -1 -1 -1 -1 -0 -2 -1 -2
-7 -8 -8 -7 -7 -8 -9 -9 -9 -9 -8 -8 -8 -8 -8 -7 -8 -7 -7 -7 -7 -8 -7 -5 -3 -3 -2 -2 -2 -1 -1 -1 -1 -2 -2 -1 -1 -1 -1 -1 -1 -2 -1 -1
-6 -7 -7 -7 -8 -8 -8 -9 -9 -9 -8 -8 -8 -8 -8 -8 -7 -7 -7 -6 -6 -6 -6 -6 -5 -4 -3 -2 -2 -2 -1 -1 -1 -1 -2 -1 -1 -1 -1 -1 -2 -2 -1 -1
Height
3107 3105 3101 3106 3107 3105 3102 3099 3096 3097 3099 3094 3093 3088 3089 3089 3088 3088 3087 3086 3085 3085 3086 3086 3087 3088 3089 3092 3093 3096 3099 3101 3103 3104 3106 3109 3110 3110 3111 3114 3114 3115 3117 3117
3100 3095 3101 3101 3101 3099 3097 3094 3091 3090 3094 3091 3088 3079 3084 3085 3082 3081 3080 3079 3077 3076 3076 3078 3079 3080 3080 3084 3087 3090 3093 3097 3099 3100 3104 3105 3107 3107 3108 3109 3110 3111 3112 3113
3094 3095 3095 3095 3096 3095 3093 3091 3088 3087 3088 3085 3083 3074 3076 3078 3078 3076 3075 3071 3069 3066 3066 3070 3072 3072 3073 3076 3080 3084 3088 3092 3094 3096 3099 3101 3103 3103 3104 3105 3107 3108 3109 3110
3089 3088 3088 3089 3091 3092 3088 3087 3085 3083 3083 3081 3081 3075 3071 3072 3072 3072 3068 3065 3062 3061 3062 3065 3067 3068 3068 3071 3075 3078 3082 3086 3089 3092 3095 3097 3099 3101 3102 3103 3104 3105 3105 3106
3089 3086 3084 3083 3084 3086 3086 3086 3083 3081 3079 3077 3076 3079 3063 3068 3067 3064 3063 3061 3058 3055 3057 3062 3063 3064 3064 3065 3069 3072 3075 3079 3083 3088 3091 3093 3095 3097 3099 3100 3101 3103 3103 3103
3080 3081 3082 3082 3080 3080 3080 3083 3079 3076 3077 3074 3072 3075 3063 3064 3062 3060 3060 3059 3054 3051 3052 3054 3057 3059 3060 3062 3064 3066 3069 3073 3077 3082 3086 3089 3091 3093 3095 3096 3097 3099 3099 3098
3078 3078 3076 3076 3077 3076 3076 3077 3075 3076 3072 3066 3065 3068 3063 3062 3061 3059 3055 3055 3052 3051 3051 3051 3053 3054 3056 3058 3060 3061 3062 3065 3070 3076 3080 3083 3086 3088 3090 3092 3093 3094 3094 3093
3074 3074 3074 3072 3072 3072 3070 3071 3072 3073 3071 3062 3061 3060 3059 3058 3058 3057 3054 3051 3050 3048 3048 3047 3046 3048 3051 3053 3054 3055 3057 3061 3065 3070 3073 3079 3081 3084 3085 3087 3088 3088 3088 3088
3069 3070 3069 3070 3069 3070 3068 3069 3071 3069 3068 3066 3053 3052 3053 3050 3050 3051 3050 3047 3046 3044 3043 3041 3039 3043 3047 3047 3047 3050 3052 3056 3061 3065 3068 3073 3077 3078 3080 3082 3083 3083 3083 3084
3064 3066 3065 3068 3068 3067 3065 3066 3067 3068 3071 3067 3048 3045 3046 3042 3042 3042 3043 3042 3041 3038 3038 3037 3035 3037 3041 3043 3044 3046 3049 3055 3059 3061 3064 3067 3071 3073 3075 3077 3078 3079 3079 3080
3064 3063 3064 3065 3068 3066 3064 3060 3060 3062 3064 3063 3057 3043 3037 3038 3037 3035 3036 3035 3035 3034 3031 3032 3033 3036 3038 3041 3044 3045 3048 3050 3053 3056 3059 3062 3065 3068 3070 3072 3073 3074 3075 3076
3061 3061 3060 3061 3060 3060 3060 3058 3059 3059 3060 3059 3058 3038 3036 3037 3035 3032 3031 3030 3032 3031 3028 3028 3031 3033 3035 3036 3040 3043 3044 3045 3047 3050 3053 3056 3059 3063 3066 3068 3069 3070 3071 3072
3056 3058 3059 3059 3059 3058 3057 3058 3057 3059 3059 3052 3054 3030 3032 3034 3032 3031 3029 3028 3026 3026 3025 3024 3024 3027 3030 3032 3034 3036 3037 3040 3040 3043 3044 3049 3054 3058 3061 3063 3065 3066 3067 3068
3052 3053 3053 3056 3055 3055 3052 3053 3054 3055 3053 3046 3038 3025 3029 3030 3028 3025 3025 3025 3023 3021 3019 3018 3017 3021 3024 3028 3031 3032 3033 3033 3035 3038 3041 3046 3050 3054 3056 3059 3061 3062 3063 3065
3049 3048 3049 3050 3049 3048 3046 3044 3045 3046 3042 3039 3029 3025 3021 3021 3019 3019 3018 3020 3019 3018 3014 3014 3013 3015 3020 3022 3026 3028 3028 3030 3033 3036 3040 3043 3047 3050 3053 3056 3058 3059 3060 3061
3045 3046 3046 3045 3045 3043 3040 3037 3036 3036 3033 3030 3025 3019 3016 3013 3009 3006 3008 3011 3014 3013 3008 3008 3008 3010 3014 3016 3020 3022 3024 3028 3030 3034 3038 3041 3045 3048 3050 3053 3054 3056 3058 3060
3043 3044 3044 3042 3042 3041 3037 3034 3032 3031 3030 3027 3020 3013 3009 3004 3001 2999 2998 3000 3004 3007 3006 3005 3003 3005 3006 3005 3006 3017 3020 3024 3028 3031 3035 3038 3043 3045 3048 3051 3053 3055 3058 3061
3040 3042 3043 3042 3040 3041 3034 3029 3029 3027 3024 3020 3014 3009 3003 2997 2991 2989 2991 2993 2998 3000 3001 3001 2997 2996 2999 3003 3008 3014 3017 3022 3025 3029 3032 3036 3041 3043 3046 3049 3052 3055 3058 3061
3039 3040 3041 3041 3038 3034 3029 3026 3027 3023 3017 3015 3010 3002 2998 2990 2985 2985 2986 2988 2992 2994 2995 2994 2993 2994 2994 2991 3001 3009 3014 3017 3021 3025 3030 3035 3038 3041 3045 3049 3052 3055 3057 3061
3037 3037 3039 3038 3038 3033 3024 3024 3024 3021 3016 3014 3007 3002 2997 2992 2988 2988 2986 2986 2987 2989 2988 2987 2984 2987 2991 2992 2990 3004 3011 3014 3018 3023 3028 3033 3036 3040 3044 3049 3053 3055 3058 3061
3032 3033 3033 3034 3033 3025 3021 3021 3021 3021 3021 3011 3010 3005 2999 2994 2992 2989 2986 2986 2986 2985 2984 2982 2979 2983 2982 2982 2984 2998 3008 3012 3016 3020 3026 3030 3035 3039 3044 3049 3053 3056 3059 3062
3027 3028 3028 3029 3029 3022 3018 3020 3020 3018 3014 3010 3009 3005 3002 2997 2992 2990 2987 2986 2986 2984 2981 2980 2979 2981 2979 2980 2986 2997 3005 3010 3013 3019 3024 3029 3034 3039 3044 3049 3053 3057 3061 3063
3023 3023 3023 3023 3018 3017 3016 3015 3016 3014 3012 3009 3007 3006 3003 3001 2998 2995 2993 2990 2986 2984 2981 2979 2978 2977 2975 2979 2990 2996 3004 3008 3013 3017 3023 3029 3034 3039 3045 3050 3054 3056 3061 3063
3016 3017 3016 3015 3012 3011 3013 3013 3012 3011 3009 3007 3006 3005 3005 3001 3000 2999 2998 2993 2989 2985 2982 2979 2977 2975 2977 2983 2987 2997 3003 3008 3012 3016 3022 3028 3034 3039 3043 3048 3053 3057 3061 3063
3011 3011 3010 3007 3007 3005 3006 3008 3008 3007 3006 3004 3002 3002 3003 3002 3001 2999 2998 2996 2994 2990 2986 2981 2979 2977 2978 2984 2990 2995 3003 3008 3012 3016 3022 3027 3032 3038 3044 3048 3052 3057 3060 3064
3005 3006 3005 3003 3003 3002 3003 3004 3005 3003 3002 3000 2998 2999 2999 3000 3000 2998 2998 2997 2994 2991 2989 2984 2980 2978 2981 2984 2989 2996 3002 3008 3012 3017 3021 3027 3032 3037 3043 3047 3051 3054 3059 3064
Wind_Speed
24 27 31 26 21 23 25 26 27 25 19 25 29 36 32 31 32 30 32 33 31 31 29 28 23 24 29 33 32 31 30 28 27 28 25 19 16 12 10 12 12 12 12 11
22 28 22 21 20 22 21 23 26 26 17 22 27 36 32 31 31 30 32 38 40 41 37 29 26 29 32 30 29 31 28 30 23 28 26 21 18 13 12 12 10 11 13 14
19 17 12 13 14 18 20 24 25 26 24 22 27 41 34 27 27 23 19 21 27 27 28 24 18 24 32 36 31 30 28 25 27 25 26 24 20 17 13 10 11 14 17 16
14 11 10 10 12 12 16 13 14 18 21 21 12 15 34 30 21 23 22 20 22 23 22 21 14 14 9 24 32 33 28 27 27 20 25 25 19 16 14 13 16 18 18 19
10 10 13 13 13 14 19 14 12 13 19 24 19 9 31 19 29 20 12 9 6 9 7 12 16 11 12 9 15 30 33 27 28 26 19 22 19 18 19 20 20 19 19 20
16 17 18 18 17 16 19 21 16 15 14 9 14 14 29 16 20 22 32 21 9 1 1 0 4 9 10 15 17 18 26 28 28 31 24 20 23 22 22 22 21 20 20 22
15 15 19 21 19 19 21 19 5 5 4 8 16 12 25 17 29 34 32 20 12 9 6 6 4 6 8 10 12 23 23 28 29 32 30 26 24 25 25 24 22 21 22 21
11 8 13 12 13 11 11 9 7 6 4 4 15 8 18 22 21 25 30 20 15 14 15 12 9 9 9 10 12 16 19 28 34 33 31 29 25 25 26 25 24 23 22 19
6 8 10 12 12 10 3 5 6 6 12 4 12 18 25 30 30 27 28 30 23 22 21 20 15 15 13 7 9 17 19 19 33 33 31 31 28 26 26 26 25 22 20 18
9 5 11 15 15 11 7 7 2 3 2 5 8 12 20 20 26 28 32 31 24 21 23 25 21 13 16 8 8 11 18 25 27 31 34 32 30 29 28 26 24 22 18 15
12 12 8 9 8 16 20 10 6 9 7 3 5 8 15 18 19 20 12 15 16 17 20 26 16 9 10 10 13 17 20 26 31 32 32 32 31 30 30 26 23 20 17 14
13 8 7 10 11 12 8 4 3 2 3 5 6 18 13 14 18 17 17 15 13 16 19 21 16 12 14 15 19 21 24 28 31 34 34 31 31 30 27 23 20 18 16 15
8 6 1 2 3 6 6 8 10 13 13 21 9 17 14 23 32 27 28 24 23 20 22 24 22 21 17 16 20 20 24 31 35 32 32 34 28 25 23 20 18 17 16 16
12 11 9 8 9 15 18 19 15 17 13 24 34 48 44 42 40 40 34 26 22 27 24 32 35 28 25 21 18 21 23 24 23 20 19 21 22 23 19 18 18 16 15 16
10 11 13 13 12 13 18 21 22 27 32 32 42 44 41 39 39 43 39 32 22 23 24 26 22 31 28 21 25 23 24 18 19 19 20 21 21 18 17 16 15 12 11 9
12 9 7 11 8 11 18 17 14 17 21 25 26 33 33 29 28 33 38 31 25 22 20 23 27 18 31 26 25 24 20 22 21 20 21 20 19 16 15 14 12 10 9 8
7 4 3 3 7 12 11 6 10 15 19 23 32 37 35 34 31 29 31 28 21 21 19 20 28 22 22 28 20 22 22 24 20 20 21 19 19 15 15 14 13 12 11 10
4 5 5 6 8 3 6 10 8 16 25 25 24 27 35 33 35 30 23 24 16 18 18 19 24 28 17 35 25 21 23 23 21 21 20 20 19 17 16 16 14 13 14 8
6 8 5 4 4 17 5 4 11 19 25 16 26 26 18 17 16 9 10 13 11 13 13 19 20 23 31 29 33 27 24 21 22 22 21 21 19 17 20 17 13 11 13 10
12 11 12 9 4 5 3 9 13 18 22 13 25 22 22 18 12 9 6 1 4 9 14 16 16 22 34 26 29 28 21 21 22 22 22 21 18 23 19 22 17 12 21 15
14 13 17 19 11 13 15 11 14 6 15 23 12 19 20 21 10 8 0 1 2 6 11 13 12 30 12 22 38 28 19 18 21 22 22 21 22 23 26 25 22 15 21 21
11 9 8 11 7 10 12 6 11 14 17 18 5 14 14 20 21 16 4 4 9 13 10 9 7 17 5 17 27 29 20 17 19 21 22 24 27 26 28 24 19 16 18 16
9 15 6 9 11 12 13 13 15 17 17 13 19 7 12 10 16 21 18 16 15 16 8 4 4 15 17 15 29 27 19 17 19 22 25 27 29 27 27 23 21 19 16 15
15 16 17 19 21 19 24 24 19 18 15 13 14 11 10 10 11 15 16 13 12 14 10 8 5 18 24 23 19 25 19 18 17 22 26 27 30 30 26 27 17 18 15 17
18 17 18 23 19 16 19 19 20 18 17 14 15 13 11 10 12 13 11 12 14 14 17 7 4 13 14 6 21 23 21 17 18 23 25 26 29 33 30 25 21 20 20 19
19 19 17 20 12 12 13 15 15 19 16 13 15 14 13 11 12 12 10 12 13 9 10 14 10 17 12 10 19 27 24 18 15 19 25 25 26 30 31 28 28 27 26 26
Wind_Direction
268 263 262 277 279 278 276 276 280 283 292 283 282 284 293 293 281 265 265 267 268 267 271 275 258 247 241 240 239 242 246 256 252 240 253 272 282 259 245 239 234 244 254 267
262 262 277 271 262 263 268 275 278 289 296 288 298 292 294 292 287 286 282 273 272 272 272 268 259 247 234 235 237 234 238 246 261 249 252 261 269 261 252 259 263 267 273 279
262 270 278 260 262 273 273 275 284 288 303 286 296 294 299 292 294 296 300 296 281 280 265 250 256 262 246 231 231 238 239 244 253 259 252 256 257 253 265 274 271 270 272 282
265 252 256 262 260 266 286 280 280 288 288 291 299 293 298 306 307 314 297 282 270 279 275 255 258 279 277 245 236 236 240 237 246 261 255 256 260 262 273 265 257 265 277 280
253 233 249 254 260 274 283 291 281 290 297 304 292 251 285 304 306 300 313 288 263 268 244 258 271 259 250 250 258 241 239 228 239 248 254 254 250 255 262 257 262 269 275 279
264 259 261 266 267 269 276 276 270 279 289 292 281 260 286 297 291 307 317 300 294 168 105 293 251 257 250 254 262 255 239 237 232 241 243 247 250 253 257 259 264 269 272 278
255 252 263 262 263 265 263 265 315 307 223 235 276 255 254 272 289 298 305 302 278 264 247 211 220 284 276 251 267 264 245 227 229 233 236 240 249 253 253 256 261 267 271 277
249 251 226 236 252 248 240 234 209 210 222 251 270 250 264 273 269 270 286 292 277 273 278 271 268 287 284 287 270 261 259 229 223 229 234 241 248 258 255 255 258 268 276 279
225 233 227 238 243 249 225 151 315 292 293 284 249 250 257 264 265 259 264 271 268 273 276 282 297 304 291 295 267 234 230 240 229 230 234 240 250 257 258 254 260 269 270 267
247 261 252 243 261 257 256 270 246 235 287 257 266 242 230 247 250 255 252 257 263 260 269 276 284 296 292 296 292 244 227 218 231 230 234 243 251 258 260 252 258 263 258 258
278 273 263 225 252 282 283 270 204 217 231 236 295 266 242 252 266 277 286 266 260 250 255 263 262 254 256 259 246 239 235 237 234 239 242 246 250 252 255 247 252 252 249 247
278 277 250 279 270 270 239 113 178 180 308 287 270 259 258 272 277 275 275 270 262 255 237 238 238 222 255 250 247 240 235 237 247 246 248 246 247 247 238 242 245 246 245 246
261 249 278 84 141 141 201 207 303 306 282 257 257 252 253 265 265 276 296 278 279 268 248 242 234 250 234 259 263 253 249 246 253 253 247 241 236 225 231 233 237 241 242 247
265 259 249 244 268 280 283 290 293 285 269 269 256 277 279 276 271 275 290 293 291 288 252 256 250 239 249 239 247 257 256 255 243 226 214 208 215 221 221 229 235 239 243 253
273 282 284 290 293 290 292 291 294 287 283 265 283 283 290 288 283 275 283 282 293 296 289 265 233 237 238 231 241 251 256 228 214 208 210 210 214 215 222 228 230 235 229 226
266 269 278 289 303 298 292 306 296 284 288 290 299 298 304 301 288 268 271 274 277 287 302 295 272 239 230 224 230 249 243 221 214 211 211 208 211 211 216 216 207 191 183 184
235 229 276 292 318 301 291 317 306 293 298 306 300 302 304 298 283 273 264 264 256 271 281 305 287 237 228 221 197 249 218 215 210 210 210 207 212 206 205 193 183 176 171 171
226 242 259 273 312 341 211 345 315 311 311 312 299 305 298 294 294 280 273 266 248 257 280 293 287 260 280 211 213 210 200 212 216 209 206 206 206 194 189 183 177 183 169 160
222 239 253 265 260 287 306 214 297 321 321 321 315 337 340 342 316 336 297 242 248 265 293 305 288 245 270 235 179 196 199 203 203 204 201 204 193 183 178 156 146 160 157 173
213 228 235 234 245 255 208 296 315 316 308 323 345 12 11 351 346 351 351 109 279 294 298 302 295 269 266 211 196 174 186 191 192 195 198 193 185 172 162 149 141 145 145 135
204 231 235 243 245 263 272 282 320 308 314 327 353 4 2 14 19 355 49 150 285 325 317 315 293 248 188 186 196 176 174 183 183 185 190 185 174 165 158 160 145 146 136 150
222 219 218 230 234 269 279 268 313 317 325 335 352 10 6 17 21 6 270 22 353 343 310 301 275 235 188 179 185 163 168 168 178 177 182 171 163 162 155 161 138 154 149 158
224 224 241 245 272 262 244 292 298 310 311 331 329 339 352 356 2 11 9 349 353 342 326 246 295 217 134 131 157 158 165 167 176 173 174 169 166 163 155 160 170 161 173 163
249 249 266 291 317 279 251 268 271 288 294 306 308 294 302 310 339 344 352 356 348 336 340 300 33 162 135 141 154 148 158 165 172 171 173 172 170 168 169 160 169 184 191 167
262 265 292 301 322 296 253 261 285 283 280 295 277 289 284 295 309 327 345 355 357 333 333 335 94 93 176 168 166 156 155 153 170 170 174 173 172 173 170 173 169 183 169 161
274 276 283 305 296 274 267 272 267 276 285 280 272 277 267 281 291 303 330 347 345 324 320 324 352 50 94 176 131 153 161 157 161 174 176 175 174 174 177 182 183 175 164 163